YAYE Airport Information

Runway Information
Runway 13 Length 8527 ft width 98 ft
Elevation 1612 ft Threshold 0 ft Heading 130
Runway 31 Length 8527 ft Width 98 ft
Elevation 1626 ft Threshold 0 ft Heading 310
Airport Frequencies
Type ATIS Name ATIS Frequency 126.55 MHZ
Type CTAF Name CTAF Frequency 126.9 MHZ
Type FSS Name MELBOURNE Frequency 121.85 MHZ
Airport Navaids
Type NDB-DME Name Ayers Rock Frequency 233 KHZ
Airport Weather Information & NOTAM
ADDS - METARS form results

(0456 UTC 18 October 2019)
Data provider http://aviationweather.gov/metar/data/
 
METAR text: YAYE 180400Z AUTO 03005KT 310V110 9999 // NCD 33/M03 Q1017
Conditions at: YAYE (AYERS ROCK , AU) observed 0400 UTC 18 October 2019
Temperature: 33.0°C (91°F)
Dewpoint: -3.0°C (27°F) [RH = 10%]
Pressure (altimeter): 30.03 inches Hg (1017.0 mb)
Winds: from the NNE (30 degrees) at 6 MPH (5 knots; 2.6 m/s)
Visibility: 6 or more miles (10+ km)
Ceiling: at least 12,000 feet AGL
Clouds: sky clear below 12,000 feet AGL
Weather: no significant weather observed at this time

Contacts Infinite Flight LiveFlight Admin Panel 

© Qantas Virtual Group